Date String (YYYY-MM-DD hh:mm:ss) UTC,Instrument flags,Ambient pressure (hPa),Sample flow (lpm),Bypass flow (lpm),Sample temperature (°C),Ambient temperature (°C),ASC tube jacket temperature (°C),LED temperature (°C),Box temperature (°C),Sample RH (%),Span deviation,Mass concentration (μg/m³),Mass concentration (μg/m³),Mass concentration (μg/m³)
DateTimeUTC,F1_M11,P_M11,Q1_M11,Q2_M11,T1_M11,T2_M11,T3_M11,T4_M11,T5_M11,U1_M11,ZSPAN_M11,X0_M11,X2_M11,X1_M11
2021-11-15 04:00:00,,0824.2,5.00,0.00,26.7,25.6,00.0,35.8,28.6,15.0,0000.0,0051.65,0003.68,0000.80
2021-11-15 04:01:00,,0824.4,4.99,0.00,26.7,25.6,00.0,35.8,28.6,15.0,0000.0,0046.86,0003.65,0000.79
2021-11-15 04:02:00,,0824.5,5.00,0.00,26.7,25.6,00.0,35.8,28.6,15.0,0000.0,0028.32,0003.40,0000.76
2021-11-15 04:03:00,,0824.4,5.00,0.00,26.7,25.6,00.0,35.8,28.5,15.0,0000.0,0013.97,0003.22,0000.73
2021-11-15 04:04:00,,0824.4,5.00,0.00,26.7,25.6,00.0,35.8,28.5,15.0,0000.0,0012.89,0003.15,0000.70
2021-11-15 04:05:00,,0824.3,5.00,0.00,26.7,25.6,00.0,35.8,28.5,15.0,0000.0,0013.52,0003.20,0000.69
2021-11-15 04:06:00,,0824.4,4.99,0.00,26.7,25.6,00.0,35.8,28.5,15.0,0000.0,0014.06,0003.22,0000.72
2021-11-15 04:07:00,,0824.5,5.00,0.00,26.7,25.6,00.0,35.8,28.5,15.0,0000.0,0014.80,0003.19,0000.71
2021-11-15 04:08:00,,0824.6,4.99,0.00,26.7,25.6,00.0,35.8,28.5,15.0,0000.0,0014.41,0003.08,0000.69
2021-11-15 04:09:00,,0824.4,5.02,0.00,26.7,25.6,00.0,35.8,28.5,15.0,0000.0,0014.42,0003.02,0000.67
2021-11-15 04:10:00,,0824.3,4.98,0.00,26.7,25.6,00.0,35.8,28.5,15.0,0000.0,0014.20,0002.85,0000.65
2021-11-15 04:11:00,,0824.4,5.02,0.00,26.7,25.6,00.0,35.8,28.5,15.0,0000.0,0013.81,0002.76,0000.65
2021-11-15 04:12:00,,0824.4,5.00,0.00,26.7,25.6,00.0,35.8,28.5,15.0,0000.0,0013.49,0002.70,0000.64
2021-11-15 04:13:00,,0824.4,5.00,0.00,26.7,25.6,00.0,35.8,28.5,15.0,0000.0,0013.00,0002.66,0000.63
2021-11-15 04:14:00,,0824.3,4.99,0.00,26.7,25.6,00.0,35.7,28.5,15.0,0000.0,0012.69,0002.63,0000.62
2021-11-15 04:15:00,,0824.3,5.00,0.00,26.7,25.6,00.0,35.7,28.5,15.0,0000.0,0011.90,0002.54,0000.60
2021-11-15 04:16:00,,0824.5,5.00,0.00,26.7,25.6,00.0,35.7,28.5,15.0,0000.0,0010.86,0002.48,0000.60
2021-11-15 04:17:00,,0824.4,5.00,0.00,26.7,25.6,00.0,35.7,28.5,15.0,0000.0,0010.42,0002.36,0000.56
2021-11-15 04:18:00,,0824.5,5.00,0.00,26.7,25.6,00.0,35.7,28.5,14.9,0000.0,0010.54,0002.42,0000.56
2021-11-15 04:19:00,,0824.6,5.00,0.00,26.7,25.6,00.0,35.7,28.5,14.9,0000.0,0010.87,0002.50,0000.55
2021-11-15 04:20:00,,0824.7,5.01,0.00,26.7,25.6,00.0,35.7,28.5,14.9,0000.0,0010.98,0002.56,0000.56
2021-11-15 04:21:00,,0824.5,5.01,0.00,26.7,25.6,00.0,35.7,28.5,14.9,0000.0,0011.96,0002.63,0000.57
2021-11-15 04:22:00,,0824.5,5.00,0.00,26.7,25.6,00.0,35.7,28.5,14.9,0000.0,0011.98,0002.54,0000.56
2021-11-15 04:23:00,,0824.4,4.99,0.00,26.6,25.6,00.0,35.7,28.4,14.9,0000.0,0011.82,0002.47,0000.55
2021-11-15 04:24:00,,0824.4,5.02,0.00,26.7,25.6,00.0,35.7,28.4,14.9,0000.0,0011.78,0002.50,0000.56
2021-11-15 04:25:00,,0824.6,4.99,0.00,26.6,25.6,00.0,35.7,28.4,14.9,0000.0,0011.24,0002.39,0000.56
2021-11-15 04:26:00,,0824.5,4.99,0.00,26.6,25.6,00.0,35.7,28.4,15.0,0000.0,0011.18,0002.38,0000.57
2021-11-15 04:27:00,,0824.5,5.00,0.00,26.6,25.6,00.0,35.7,28.4,14.9,0000.0,0011.61,0002.32,0000.57
2021-11-15 04:28:00,,0824.5,4.99,0.00,26.6,25.6,00.0,35.7,28.4,14.9,0000.0,0011.81,0002.33,0000.57
2021-11-15 04:29:00,,0824.4,5.01,0.00,26.6,25.5,00.0,35.7,28.4,14.9,0000.0,0011.47,0002.30,0000.57
2021-11-15 04:30:00,,0824.5,4.99,0.00,26.6,25.5,00.0,35.7,28.4,14.9,0000.0,0010.72,0002.25,0000.59
2021-11-15 04:31:00,,0824.4,4.98,0.00,26.6,25.5,00.0,35.7,28.4,14.9,0000.0,0010.46,0002.23,0000.58
2021-11-15 04:32:00,,0824.5,5.01,0.00,26.6,25.5,00.0,35.7,28.4,14.9,0000.0,0009.35,0002.17,0000.57
2021-11-15 04:33:00,,0824.5,5.00,0.00,26.6,25.5,00.0,35.7,28.4,15.0,0000.0,0009.21,0002.22,0000.57
2021-11-15 04:34:00,,0824.4,4.99,0.00,26.6,25.5,00.0,35.6,28.4,15.0,0000.0,0009.03,0002.33,0000.56
2021-11-15 04:35:00,,0824.6,5.01,0.00,26.6,25.5,00.0,35.6,28.4,15.0,0000.0,0008.84,0002.29,0000.57
2021-11-15 04:36:00,,0824.4,5.00,0.00,26.6,25.5,00.0,35.6,28.4,15.0,0000.0,0009.14,0002.31,0000.56
2021-11-15 04:37:00,,0824.6,4.99,0.00,26.6,25.5,00.0,35.6,28.4,15.0,0000.0,0010.19,0002.33,0000.57
2021-11-15 04:38:00,,0824.4,5.00,0.00,26.6,25.5,00.0,35.6,28.4,15.0,0000.0,0010.03,0002.33,0000.58
2021-11-15 04:39:00,,0824.5,5.01,0.00,26.6,25.5,00.0,35.6,28.4,15.0,0000.0,0009.72,0002.40,0000.57
2021-11-15 04:40:00,,0824.6,5.01,0.00,26.6,25.5,00.0,35.6,28.4,15.0,0000.0,0009.37,0002.39,0000.56
2021-11-15 04:41:00,,0824.5,5.00,0.00,26.6,25.5,00.0,35.6,28.4,15.0,0000.0,0009.76,0002.36,0000.56
2021-11-15 04:42:00,,0824.8,4.99,0.00,26.6,25.5,00.0,35.6,28.4,15.0,0000.0,0010.18,0002.39,0000.57
2021-11-15 04:43:00,,0824.8,5.00,0.00,26.6,25.5,00.0,35.6,28.4,15.0,0000.0,0010.68,0002.42,0000.57
2021-11-15 04:44:00,,0824.6,5.00,0.00,26.6,25.5,00.0,35.6,28.4,15.0,0000.0,0010.74,0002.39,0000.56
2021-11-15 04:45:00,,0824.5,5.00,0.00,26.6,25.5,00.0,35.6,28.4,15.0,0000.0,0010.81,0002.36,0000.56
2021-11-15 04:46:00,,0824.4,5.00,0.00,26.6,25.5,00.0,35.6,28.3,15.0,0000.0,0011.39,0002.41,0000.57
2021-11-15 04:47:00,,0824.5,5.01,0.00,26.6,25.5,00.0,35.6,28.4,15.0,0000.0,0011.38,0002.37,0000.56
2021-11-15 04:48:00,,0824.5,5.00,0.00,26.6,25.5,00.0,35.6,28.3,15.0,0000.0,0011.21,0002.35,0000.55
2021-11-15 04:49:00,,0824.4,5.00,0.00,26.6,25.5,00.0,35.6,28.4,15.0,0000.0,0010.78,0002.35,0000.55
2021-11-15 04:50:00,,0824.4,5.01,0.00,26.5,25.5,00.0,35.6,28.4,15.0,0000.0,0011.25,0002.33,0000.56
2021-11-15 04:51:00,,0824.4,5.01,0.00,26.5,25.5,00.0,35.6,28.4,15.0,0000.0,0011.88,0002.33,0000.57
2021-11-15 04:52:00,,0824.5,5.00,0.00,26.6,25.5,00.0,35.6,28.4,14.9,0000.0,0012.34,0002.43,0000.59
2021-11-15 04:53:00,,0824.5,5.00,0.00,26.6,25.5,00.0,35.6,28.4,14.9,0000.0,0012.16,0002.47,0000.58
2021-11-15 04:54:00,,0824.5,4.98,0.00,26.6,25.5,00.0,35.6,28.4,14.9,0000.0,0012.05,0002.54,0000.59
2021-11-15 04:55:00,,0824.4,5.01,0.00,26.6,25.5,00.0,35.6,28.4,14.9,0000.0,0012.74,0002.55,0000.59
2021-11-15 04:56:00,,0824.3,5.00,0.00,26.5,25.5,00.0,35.6,28.3,14.9,0000.0,0013.21,0002.57,0000.59
2021-11-15 04:57:00,,0824.3,5.00,0.00,26.5,25.5,00.0,35.6,28.3,14.8,0000.0,0012.85,0002.55,0000.58
2021-11-15 04:58:00,,0824.3,5.01,0.00,26.5,25.5,00.0,35.6,28.3,14.8,0000.0,0012.58,0002.62,0000.60
2021-11-15 04:59:00,,0824.4,4.99,0.00,26.5,25.5,00.0,35.6,28.3,14.9,0000.0,0012.35,0002.64,0000.61
